McAllen, TX

5:14 AM CST on January 21, 2017 (GMT -0600)
McAllen

Weather History for KMFE - September, 2012

Change the Weather History Date:

Sunday, September 2, 2012

  Actual Average Record
Temperature  
Mean Temperature 90 °F 86 °F  
Max Temperature 101 °F 96 °F 104 °F (1989)
Min Temperature 78 °F 76 °F 70 °F (1990)
Degree Days  
Heating Degree Days 0 0  
Month to date heating degree days 0 0  
Since 1 July heating degree days 0 0  
Cooling Degree Days 25 21  
Month to date cooling degree days 48 42  
Year to date cooling degree days 3840 3293  
Growing Degree Days 40 (Base 50)    
Moisture  
Dew Point 71 °F    
Average Humidity 60    
Maximum Humidity 91    
Minimum Humidity 29    
Precipitation  
Precipitation 0.00 in 0.15 in 6.89 in (1990)
Month to date precipitation 0.03 0.29  
Year to date precipitation 13.37 13.86  
Sea Level Pressure  
Sea Level Pressure 29.98 in    
Wind  
Wind Speed 14 mph (SE)    
Max Wind Speed 24 mph    
Max Gust Speed 30 mph    
Visibility 10 miles    
Events      
T = Trace of Precipitation, MM = Missing Value Source: NWS Daily Summary

Daily Weather History Graph

Daily Weather History Graph

Search for Another Location

Airport or City:

Trip Planner

Search our weather history database for the weather conditions in past years. The results will help you decide how hot, cold, wet, or windy it might be!

Date:

Astronomy

Sep. 02, 2012 Rise Set
Actual Time 7:13 AM CDT 7:50 PM CDT
Civil Twilight 6:50 AM CDT 8:14 PM CDT
Nautical Twilight 6:22 AM CDT 8:41 PM CDT
Astronomical Twilight 5:54 AM CDT 9:09 PM CDT
Moon 9:01 PM CDT (9/2) 9:04 AM CDT (9/2)
Length of Visible Light 13h 24m
Length of Day
12h 37m
Waning Gibbous, 95% of the Moon is Illuminated
Sep 2
Waning Gibbous
Sep 8
Last Quarter
Sep 15
New
Sep 22
First Quarter
Sep 29
Full

Hourly Weather History & Observations

Time (CDT) Temp. Heat Index Dew Point Humidity Pressure Visibility Wind Dir Wind Speed Gust Speed Precip Events Conditions
12:53 AM 81.0 °F 86.7 °F 75.0 °F 82% 30.01 in 10.0 mi SE 12.7 mph - N/A   Clear
1:22 AM 80.6 °F 86.2 °F 75.2 °F 84% 30.01 in 10.0 mi SE 11.5 mph - N/A   Mostly Cloudy
1:53 AM 81.0 °F 87.3 °F 75.9 °F 85% 30.01 in 10.0 mi SE 10.4 mph - N/A   Overcast
2:30 AM 80.6 °F 86.2 °F 75.2 °F 84% 30.00 in 10.0 mi SE 8.1 mph - N/A   Overcast
2:48 AM 80.6 °F 86.2 °F 75.2 °F 84% 29.99 in 10.0 mi SSE 9.2 mph - N/A   Overcast
2:53 AM 80.6 °F 86.2 °F 75.2 °F 84% 29.99 in 10.0 mi SE 9.2 mph - N/A   Overcast
3:02 AM 80.6 °F 86.2 °F 75.2 °F 84% 29.99 in 10.0 mi SSE 8.1 mph - N/A   Overcast
3:53 AM 81.0 °F 87.3 °F 75.9 °F 85% 29.99 in 10.0 mi SE 10.4 mph - N/A   Overcast
4:49 AM 80.6 °F 86.2 °F 75.2 °F 84% 29.99 in 10.0 mi SSE 6.9 mph - N/A   Scattered Clouds
4:53 AM 80.1 °F 85.1 °F 75.0 °F 85% 29.98 in 10.0 mi SSE 8.1 mph - N/A   Partly Cloudy
5:53 AM 79.0 °F - 75.0 °F 88% 29.98 in 10.0 mi SE 6.9 mph - N/A   Clear
6:53 AM 79.0 °F - 73.9 °F 84% 29.99 in 10.0 mi SE 9.2 mph - N/A   Clear
7:53 AM 79.0 °F - 73.9 °F 84% 30.01 in 9.0 mi SE 8.1 mph - N/A   Clear
8:53 AM 82.9 °F 90.2 °F 75.0 °F 77% 30.02 in 10.0 mi SSE 13.8 mph - N/A   Partly Cloudy
9:53 AM 87.1 °F 95.4 °F 73.9 °F 65% 30.03 in 10.0 mi SE 17.3 mph 24.2 mph N/A   Partly Cloudy
10:53 AM 90.0 °F 96.9 °F 72.0 °F 55% 30.04 in 10.0 mi SSE 18.4 mph 24.2 mph N/A   Mostly Cloudy
11:53 AM 93.9 °F 97.5 °F 66.9 °F 41% 30.02 in 10.0 mi SSE 18.4 mph 27.6 mph N/A   Clear
12:53 PM 97.0 °F 100.4 °F 66.0 °F 36% 30.00 in 10.0 mi SSE 20.7 mph 27.6 mph N/A   Clear
1:53 PM 99.0 °F 101.7 °F 64.0 °F 32% 29.98 in 10.0 mi SE 23.0 mph - N/A   Clear
2:53 PM 100.0 °F 103.0 °F 64.0 °F 31% 29.95 in 10.0 mi SE 21.9 mph 29.9 mph N/A   Clear
3:53 PM 99.0 °F 102.3 °F 64.9 °F 33% 29.93 in 10.0 mi South 16.1 mph 26.5 mph N/A   Clear
4:53 PM 98.1 °F 98.6 °F 61.0 °F 29% 29.91 in 10.0 mi SSE 19.6 mph 27.6 mph N/A   Clear
5:53 PM 97.0 °F 97.8 °F 62.1 °F 31% 29.91 in 10.0 mi SE 19.6 mph 25.3 mph N/A   Clear
6:53 PM 93.9 °F 94.8 °F 62.1 °F 35% 29.91 in 10.0 mi SE 17.3 mph - N/A   Clear
7:53 PM 90.0 °F 92.4 °F 66.0 °F 45% 29.92 in 10.0 mi SSE 15.0 mph 23.0 mph N/A   Clear
8:53 PM 87.1 °F 92.0 °F 70.0 °F 57% 29.94 in 10.0 mi SSE 10.4 mph 19.6 mph N/A   Clear
9:53 PM 84.9 °F 90.1 °F 71.1 °F 63% 29.95 in 10.0 mi SE 9.2 mph - N/A   Clear
10:53 PM 82.9 °F 88.8 °F 73.0 °F 72% 29.96 in 10.0 mi SE 12.7 mph - N/A   Clear
11:53 PM 82.0 °F 87.9 °F 73.9 °F 76% 29.97 in 10.0 mi SE 11.5 mph - N/A   Clear